Wetterdaten: Mittwoch, 26.08.2015
Datum Zeit Temp. A. Feuchte A. Luftdruck Regen Wind Richtung Richtung Sonnenschein ET UV Solar Taupunkt Windchill Windben Empfang
26.08.2015 00:04 9,7 C 90 % 1021,3 hPa 0,0 l/m 0,0 km/h (0 Bft) O-NO 62 0 min 0,000 mm 0,0 UV-I 0 W/m 8,1 C 9,7 C 0,0 km/h (0 Bft) 0,00 %
26.08.2015 00:09 9,7 C 90 % 1021,3 hPa 0,0 l/m 0,0 km/h (0 Bft) O-NO 62 0 min 0,000 mm 0,0 UV-I 0 W/m 8,1 C 9,7 C 0,0 km/h (0 Bft) 0,00 %
26.08.2015 00:14 9,7 C 90 % 1021,5 hPa 0,0 l/m 0,0 km/h (0 Bft) O-NO 62 0 min 0,000 mm 0,0 UV-I 0 W/m 8,1 C 9,7 C 0,0 km/h (0 Bft) 0,00 %
26.08.2015 00:19 9,6 C 89 % 1021,2 hPa 0,0 l/m 0,0 km/h (0 Bft) O-NO 62 0 min 0,000 mm 0,0 UV-I 0 W/m 7,9 C 9,6 C 0,0 km/h (0 Bft) 0,00 %
26.08.2015 00:24 9,5 C 89 % 1021,5 hPa 0,0 l/m 0,0 km/h (0 Bft) O-NO 61 0 min 0,000 mm 0,0 UV-I 0 W/m 7,8 C 9,5 C 0,0 km/h (0 Bft) 0,00 %
26.08.2015 00:29 9,3 C 90 % 1021,3 hPa 0,0 l/m 0,0 km/h (0 Bft) O-NO 68 0 min 0,000 mm 0,0 UV-I 0 W/m 7,7 C 9,3 C 0,0 km/h (0 Bft) 0,00 %
26.08.2015 00:34 9,1 C 91 % 1021,6 hPa 0,0 l/m 0,0 km/h (0 Bft) O-NO 73 0 min 0,000 mm 0,0 UV-I 0 W/m 7,7 C 9,1 C 0,0 km/h (0 Bft) 0,00 %
26.08.2015 00:39 9,0 C 91 % 1021,3 hPa 0,0 l/m 0,0 km/h (0 Bft) NO 37 0 min 0,000 mm 0,0 UV-I 0 W/m 7,6 C 9,0 C 0,0 km/h (0 Bft) 0,00 %
26.08.2015 00:44 9,0 C 92 % 1021,4 hPa 0,0 l/m 0,0 km/h (0 Bft) O-NO 78 0 min 0,000 mm 0,0 UV-I 0 W/m 7,8 C 9,0 C 0,0 km/h (0 Bft) 0,00 %
26.08.2015 00:49 8,9 C 92 % 1021,4 hPa 0,0 l/m 0,0 km/h (0 Bft) O-NO 69 0 min 0,000 mm 0,0 UV-I 0 W/m 7,7 C 8,9 C 0,0 km/h (0 Bft) 0,00 %
26.08.2015 00:54 9,0 C 92 % 1021,4 hPa 0,0 l/m 0,0 km/h (0 Bft) O-NO 59 0 min 0,000 mm 0,0 UV-I 0 W/m 7,8 C 9,0 C 0,0 km/h (0 Bft) 0,00 %
26.08.2015 00:59 9,1 C 92 % 1021,4 hPa 0,0 l/m 0,0 km/h (0 Bft) O-NO 63 0 min 0,000 mm 0,0 UV-I 0 W/m 7,9 C 9,1 C 0,0 km/h (0 Bft) 0,00 %
26.08.2015 01:04 9,0 C 92 % 1021,1 hPa 0,0 l/m 0,0 km/h (0 Bft) O-NO 63 0 min 0,000 mm 0,0 UV-I 0 W/m 7,8 C 9,0 C 0,0 km/h (0 Bft) 0,00 %
26.08.2015 01:09 8,9 C 92 % 1021,5 hPa 0,0 l/m 0,0 km/h (0 Bft) NO 40 0 min 0,000 mm 0,0 UV-I 0 W/m 7,7 C 8,9 C 0,0 km/h (0 Bft) 0,00 %
26.08.2015 01:14 8,6 C 92 % 1021,5 hPa 0,0 l/m 0,0 km/h (0 Bft) N-NO 31 0 min 0,000 mm 0,0 UV-I 0 W/m 7,4 C 8,6 C 0,0 km/h (0 Bft) 0,00 %
26.08.2015 01:19 8,5 C 92 % 1021,4 hPa 0,0 l/m 0,0 km/h (0 Bft) O-NO 63 0 min 0,000 mm 0,0 UV-I 0 W/m 7,3 C 8,5 C 0,0 km/h (0 Bft) 0,00 %
26.08.2015 01:24 8,4 C 92 % 1021,5 hPa 0,0 l/m 0,0 km/h (0 Bft) O-NO 58 0 min 0,000 mm 0,0 UV-I 0 W/m 7,2 C 8,4 C 0,0 km/h (0 Bft) 0,00 %
26.08.2015 01:29 8,3 C 93 % 1021,2 hPa 0,0 l/m 0,0 km/h (0 Bft) O-NO 58 0 min 0,000 mm 0,0 UV-I 0 W/m 7,2 C 8,3 C 0,0 km/h (0 Bft) 0,00 %
26.08.2015 01:34 8,3 C 93 % 1021,3 hPa 0,0 l/m 0,0 km/h (0 Bft) O-NO 58 0 min 0,000 mm 0,0 UV-I 0 W/m 7,2 C 8,3 C 0,0 km/h (0 Bft) 0,00 %
26.08.2015 01:39 8,3 C 93 % 1021,4 hPa 0,0 l/m 0,0 km/h (0 Bft) O-NO 58 0 min 0,000 mm 0,0 UV-I 0 W/m 7,2 C 8,3 C 0,0 km/h (0 Bft) 0,00 %
26.08.2015 01:44 8,2 C 93 % 1021,3 hPa 0,0 l/m 0,0 km/h (0 Bft) O-NO 58 0 min 0,000 mm 0,0 UV-I 0 W/m 7,1 C 8,2 C 0,0 km/h (0 Bft) 0,00 %
26.08.2015 01:49 8,2 C 94 % 1021,4 hPa 0,0 l/m 0,0 km/h (0 Bft) O-NO 58 0 min 0,000 mm 0,0 UV-I 0 W/m 7,3 C 8,2 C 0,0 km/h (0 Bft) 0,00 %
26.08.2015 01:54 8,1 C 95 % 1021,3 hPa 0,0 l/m 0,0 km/h (0 Bft) O-NO 58 0 min 0,000 mm 0,0 UV-I 0 W/m 7,3 C 8,1 C 0,0 km/h (0 Bft) 0,00 %
26.08.2015 01:59 8,0 C 95 % 1021,4 hPa 0,0 l/m 0,0 km/h (0 Bft) NO 44 0 min 0,000 mm 0,0 UV-I 0 W/m 7,2 C 8,0 C 0,0 km/h (0 Bft) 0,00 %
26.08.2015 02:04 7,8 C 95 % 1021,4 hPa 0,0 l/m 0,0 km/h (0 Bft) NO 36 0 min 0,000 mm 0,0 UV-I 0 W/m 7,0 C 7,8 C 0,0 km/h (0 Bft) 0,00 %
26.08.2015 02:10 7,7 C 95 % 1021,2 hPa 0,0 l/m 0,0 km/h (0 Bft) N 2 0 min 0,000 mm 0,0 UV-I 0 W/m 7,0 C 7,7 C 0,0 km/h (0 Bft) 0,00 %
26.08.2015 02:15 7,6 C 95 % 1021,3 hPa 0,0 l/m 0,0 km/h (0 Bft) NO 45 0 min 0,000 mm 0,0 UV-I 0 W/m 6,9 C 7,6 C 0,0 km/h (0 Bft) 0,00 %
26.08.2015 02:20 7,5 C 95 % 1021,4 hPa 0,0 l/m 0,0 km/h (0 Bft) NO 45 0 min 0,000 mm 0,0 UV-I 0 W/m 6,8 C 7,5 C 0,0 km/h (0 Bft) 0,00 %
26.08.2015 02:25 7,3 C 95 % 1021,3 hPa 0,0 l/m 0,0 km/h (0 Bft) NO 50 0 min 0,000 mm 0,0 UV-I 0 W/m 6,6 C 7,3 C 0,0 km/h (0 Bft) 0,00 %
26.08.2015 02:30 7,3 C 95 % 1021,4 hPa 0,0 l/m 0,0 km/h (0 Bft) NO 50 0 min 0,000 mm 0,0 UV-I 0 W/m 6,6 C 7,3 C 0,0 km/h (0 Bft) 0,00 %
26.08.2015 02:35 7,2 C 96 % 1021,4 hPa 0,0 l/m 0,0 km/h (0 Bft) NO 50 0 min 0,000 mm 0,0 UV-I 0 W/m 6,6 C 7,2 C 0,0 km/h (0 Bft) 0,00 %
26.08.2015 02:40 7,2 C 96 % 1021,4 hPa 0,0 l/m 0,0 km/h (0 Bft) NO 50 0 min 0,000 mm 0,0 UV-I 0 W/m 6,6 C 7,2 C 0,0 km/h (0 Bft) 0,00 %
26.08.2015 02:45 7,1 C 96 % 1021,4 hPa 0,0 l/m 0,0 km/h (0 Bft) NO 50 0 min 0,000 mm 0,0 UV-I 0 W/m 6,5 C 7,1 C 0,0 km/h (0 Bft) 0,00 %
26.08.2015 02:50 7,1 C 96 % 1021,6 hPa 0,0 l/m 0,0 km/h (0 Bft) O-NO 59 0 min 0,000 mm 0,0 UV-I 0 W/m 6,5 C 7,1 C 0,0 km/h (0 Bft) 0,00 %
26.08.2015 02:55 7,1 C 97 % 1021,4 hPa 0,0 l/m 0,0 km/h (0 Bft) O-NO 65 0 min 0,000 mm 0,0 UV-I 0 W/m 6,7 C 7,1 C 0,0 km/h (0 Bft) 0,00 %
26.08.2015 03:00 7,1 C 97 % 1021,4 hPa 0,0 l/m 0,0 km/h (0 Bft) O-NO 65 0 min 0,000 mm 0,0 UV-I 0 W/m 6,7 C 7,1 C 0,0 km/h (0 Bft) 0,00 %
26.08.2015 03:05 7,1 C 97 % 1021,4 hPa 0,0 l/m 0,0 km/h (0 Bft) NO 46 0 min 0,000 mm 0,0 UV-I 0 W/m 6,7 C 7,1 C 0,0 km/h (0 Bft) 0,00 %
26.08.2015 03:10 7,1 C 97 % 1021,5 hPa 0,0 l/m 0,0 km/h (0 Bft) NO 46 0 min 0,000 mm 0,0 UV-I 0 W/m 6,7 C 7,1 C 0,0 km/h (0 Bft) 0,00 %
26.08.2015 03:15 7,0 C 97 % 1021,5 hPa 0,0 l/m 0,0 km/h (0 Bft) NO 48 0 min 0,000 mm 0,0 UV-I 0 W/m 6,6 C 7,0 C 0,0 km/h (0 Bft) 0,00 %
26.08.2015 03:20 6,9 C 97 % 1021,5 hPa 0,0 l/m 0,0 km/h (0 Bft) NO 46 0 min 0,000 mm 0,0 UV-I 0 W/m 6,5 C 6,9 C 0,0 km/h (0 Bft) 0,00 %
26.08.2015 03:25 6,7 C 97 % 1021,3 hPa 0,0 l/m 0,0 km/h (0 Bft) O-NO 63 0 min 0,000 mm 0,0 UV-I 0 W/m 6,3 C 6,7 C 0,0 km/h (0 Bft) 0,00 %
26.08.2015 03:30 6,6 C 97 % 1021,6 hPa 0,0 l/m 0,0 km/h (0 Bft) NO 46 0 min 0,000 mm 0,0 UV-I 0 W/m 6,2 C 6,6 C 0,0 km/h (0 Bft) 0,00 %
26.08.2015 03:35 6,6 C 97 % 1021,5 hPa 0,0 l/m 0,0 km/h (0 Bft) NO 47 0 min 0,000 mm 0,0 UV-I 0 W/m 6,2 C 6,6 C 0,0 km/h (0 Bft) 0,00 %
26.08.2015 03:40 6,5 C 97 % 1021,4 hPa 0,0 l/m 0,0 km/h (0 Bft) NO 47 0 min 0,000 mm 0,0 UV-I 0 W/m 6,1 C 6,5 C 0,0 km/h (0 Bft) 0,00 %
26.08.2015 03:45 6,5 C 97 % 1021,4 hPa 0,0 l/m 0,0 km/h (0 Bft) O-NO 65 0 min 0,000 mm 0,0 UV-I 0 W/m 6,1 C 6,5 C 0,0 km/h (0 Bft) 0,00 %
26.08.2015 03:50 6,5 C 97 % 1021,4 hPa 0,0 l/m 0,0 km/h (0 Bft) NO 41 0 min 0,000 mm 0,0 UV-I 0 W/m 6,1 C 6,5 C 0,0 km/h (0 Bft) 0,00 %
26.08.2015 03:55 6,4 C 97 % 1021,5 hPa 0,0 l/m 0,0 km/h (0 Bft) N-NO 19 0 min 0,000 mm 0,0 UV-I 0 W/m 6,0 C 6,4 C 0,0 km/h (0 Bft) 0,00 %
26.08.2015 04:00 6,4 C 97 % 1021,5 hPa 0,0 l/m 0,0 km/h (0 Bft) NO 43 0 min 0,000 mm 0,0 UV-I 0 W/m 6,0 C 6,4 C 0,0 km/h (0 Bft) 0,00 %
26.08.2015 04:05 6,4 C 97 % 1021,4 hPa 0,0 l/m 0,0 km/h (0 Bft) NO 43 0 min 0,000 mm 0,0 UV-I 0 W/m 6,0 C 6,4 C 0,0 km/h (0 Bft) 0,00 %
26.08.2015 04:10 6,4 C 97 % 1021,3 hPa 0,0 l/m 0,0 km/h (0 Bft) NO 49 0 min 0,000 mm 0,0 UV-I 0 W/m 6,0 C 6,4 C 0,0 km/h (0 Bft) 0,00 %
26.08.2015 04:15 6,3 C 97 % 1021,5 hPa 0,0 l/m 0,0 km/h (0 Bft) NO 49 0 min 0,000 mm 0,0 UV-I 0 W/m 5,9 C 6,3 C 0,0 km/h (0 Bft) 0,00 %
26.08.2015 04:20 6,3 C 97 % 1021,3 hPa 0,0 l/m 0,0 km/h (0 Bft) NO 49 0 min 0,000 mm 0,0 UV-I 0 W/m 5,9 C 6,3 C 0,0 km/h (0 Bft) 0,00 %
26.08.2015 04:25 6,3 C 97 % 1021,6 hPa 0,0 l/m 0,0 km/h (0 Bft) NO 46 0 min 0,000 mm 0,0 UV-I 0 W/m 5,9 C 6,3 C 0,0 km/h (0 Bft) 0,00 %
26.08.2015 04:30 6,3 C 97 % 1021,6 hPa 0,0 l/m 0,0 km/h (0 Bft) NO 52 0 min 0,000 mm 0,0 UV-I 0 W/m 5,9 C 6,3 C 0,0 km/h (0 Bft) 0,00 %
26.08.2015 04:35 6,3 C 97 % 1021,6 hPa 0,0 l/m 0,0 km/h (0 Bft) NO 51 0 min 0,000 mm 0,0 UV-I 0 W/m 5,9 C 6,3 C 0,0 km/h (0 Bft) 0,00 %
26.08.2015 04:40 6,3 C 97 % 1021,7 hPa 0,0 l/m 0,0 km/h (0 Bft) O 79 0 min 0,000 mm 0,0 UV-I 0 W/m 5,9 C 6,3 C 0,0 km/h (0 Bft) 0,00 %
26.08.2015 04:45 6,3 C 97 % 1021,9 hPa 0,0 l/m 0,0 km/h (0 Bft) NO 52 0 min 0,000 mm 0,0 UV-I 0 W/m 5,9 C 6,3 C 0,0 km/h (0 Bft) 0,00 %
26.08.2015 04:50 6,3 C 97 % 1021,6 hPa 0,0 l/m 0,0 km/h (0 Bft) NO 54 0 min 0,000 mm 0,0 UV-I 0 W/m 5,9 C 6,3 C 0,0 km/h (0 Bft) 0,00 %
26.08.2015 04:55 6,2 C 97 % 1021,8 hPa 0,0 l/m 0,0 km/h (0 Bft) O-NO 59 0 min 0,000 mm 0,0 UV-I 0 W/m 5,8 C 6,2 C 0,0 km/h (0 Bft) 0,00 %
26.08.2015 05:00 6,2 C 97 % 1021,9 hPa 0,0 l/m 0,0 km/h (0 Bft) O-NO 62 0 min 0,000 mm 0,0 UV-I 0 W/m 5,8 C 6,2 C 0,0 km/h (0 Bft) 0,00 %
26.08.2015 05:05 6,2 C 98 % 1021,8 hPa 0,0 l/m 0,0 km/h (0 Bft) O-NO 62 0 min 0,000 mm 0,0 UV-I 0 W/m 5,9 C 6,2 C 0,0 km/h (0 Bft) 0,00 %
26.08.2015 05:10 6,0 C 98 % 1021,8 hPa 0,0 l/m 0,0 km/h (0 Bft) O-NO 64 0 min 0,000 mm 0,0 UV-I 0 W/m 5,7 C 6,0 C 0,0 km/h (0 Bft) 0,00 %
26.08.2015 05:15 6,0 C 98 % 1022,0 hPa 0,0 l/m 0,0 km/h (0 Bft) O-NO 66 0 min 0,000 mm 0,0 UV-I 0 W/m 5,7 C 6,0 C 0,0 km/h (0 Bft) 0,00 %
26.08.2015 05:20 5,9 C 98 % 1021,8 hPa 0,0 l/m 0,0 km/h (0 Bft) O-NO 66 0 min 0,000 mm 0,0 UV-I 0 W/m 5,6 C 5,9 C 0,0 km/h (0 Bft) 0,00 %
26.08.2015 05:25 5,9 C 97 % 1021,8 hPa 0,0 l/m 0,0 km/h (0 Bft) O-NO 66 0 min 0,000 mm 0,0 UV-I 0 W/m 5,5 C 5,9 C 0,0 km/h (0 Bft) 0,00 %
26.08.2015 05:30 5,9 C 97 % 1021,8 hPa 0,0 l/m 0,0 km/h (0 Bft) NO 41 0 min 0,000 mm 0,0 UV-I 0 W/m 5,5 C 5,9 C 0,0 km/h (0 Bft) 0,00 %
26.08.2015 05:35 6,1 C 97 % 1021,8 hPa 0,0 l/m 0,0 km/h (0 Bft) NO 35 0 min 0,000 mm 0,0 UV-I 0 W/m 5,7 C 6,1 C 0,0 km/h (0 Bft) 0,00 %
26.08.2015 05:40 6,1 C 97 % 1021,8 hPa 0,0 l/m 0,0 km/h (0 Bft) NO 45 0 min 0,000 mm 0,0 UV-I 0 W/m 5,7 C 6,1 C 0,0 km/h (0 Bft) 0,00 %
26.08.2015 05:45 6,1 C 97 % 1022,0 hPa 0,0 l/m 0,0 km/h (0 Bft) NO 44 0 min 0,000 mm 0,0 UV-I 0 W/m 5,7 C 6,1 C 0,0 km/h (0 Bft) 0,00 %
26.08.2015 05:50 6,0 C 98 % 1022,0 hPa 0,0 l/m 0,0 km/h (0 Bft) NO 44 0 min 0,000 mm 0,0 UV-I 0 W/m 5,7 C 6,0 C 0,0 km/h (0 Bft) 0,00 %
26.08.2015 05:55 5,8 C 98 % 1022,1 hPa 0,0 l/m 0,0 km/h (0 Bft) N-NO 33 0 min 0,000 mm 0,0 UV-I 0 W/m 5,5 C 5,8 C 0,0 km/h (0 Bft) 0,00 %
26.08.2015 06:00 5,7 C 98 % 1022,1 hPa 0,0 l/m 0,0 km/h (0 Bft) NO 56 0 min 0,000 mm 0,0 UV-I 0 W/m 5,4 C 5,7 C 0,0 km/h (0 Bft) 0,00 %
26.08.2015 06:05 5,6 C 98 % 1022,2 hPa 0,0 l/m 0,0 km/h (0 Bft) O-NO 58 0 min 0,000 mm 0,0 UV-I 0 W/m 5,3 C 5,6 C 0,0 km/h (0 Bft) 0,00 %
26.08.2015 06:10 5,6 C 98 % 1022,2 hPa 0,0 l/m 0,0 km/h (0 Bft) O-NO 58 0 min 0,000 mm 0,0 UV-I 0 W/m 5,3 C 5,6 C 0,0 km/h (0 Bft) 0,00 %
26.08.2015 06:15 5,5 C 98 % 1022,1 hPa 0,0 l/m 0,0 km/h (0 Bft) O-NO 58 0 min 0,000 mm 0,0 UV-I 1 W/m 5,2 C 5,5 C 0,0 km/h (0 Bft) 0,00 %
26.08.2015 06:20 5,4 C 98 % 1022,0 hPa 0,0 l/m 0,0 km/h (0 Bft) O-NO 58 0 min 0,000 mm 0,0 UV-I 6 W/m 5,1 C 5,4 C 0,0 km/h (0 Bft) 0,00 %
26.08.2015 06:25 5,4 C 98 % 1022,0 hPa 0,0 l/m 0,0 km/h (0 Bft) O-NO 58 5 min 0,000 mm 0,0 UV-I 12 W/m 5,1 C 5,4 C 0,0 km/h (0 Bft) 0,00 %
26.08.2015 06:30 5,4 C 98 % 1022,1 hPa 0,0 l/m 0,0 km/h (0 Bft) O-NO 57 5 min 0,000 mm 0,0 UV-I 25 W/m 5,1 C 5,4 C 0,0 km/h (0 Bft) 0,00 %
26.08.2015 06:35 5,5 C 98 % 1021,9 hPa 0,0 l/m 0,0 km/h (0 Bft) O-NO 57 5 min 0,000 mm 0,0 UV-I 44 W/m 5,2 C 5,5 C 0,0 km/h (0 Bft) 0,00 %
26.08.2015 06:40 5,8 C 97 % 1022,1 hPa 0,0 l/m 0,0 km/h (0 Bft) O-NO 57 5 min 0,000 mm 0,0 UV-I 60 W/m 5,4 C 5,8 C 0,0 km/h (0 Bft) 0,00 %
26.08.2015 06:45 6,3 C 97 % 1022,2 hPa 0,0 l/m 0,0 km/h (0 Bft) O-NO 57 5 min 0,000 mm 0,0 UV-I 76 W/m 5,9 C 6,3 C 0,0 km/h (0 Bft) 0,00 %
26.08.2015 06:50 6,8 C 99 % 1022,2 hPa 0,0 l/m 0,0 km/h (0 Bft) O-NO 57 5 min 0,000 mm 0,0 UV-I 90 W/m 6,7 C 6,8 C 0,0 km/h (0 Bft) 0,00 %
26.08.2015 06:55 7,4 C 99 % 1022,2 hPa 0,0 l/m 0,0 km/h (0 Bft) O-NO 57 5 min 0,000 mm 0,0 UV-I 102 W/m 7,3 C 7,4 C 0,0 km/h (0 Bft) 0,00 %
26.08.2015 07:00 7,9 C 99 % 1022,0 hPa 0,0 l/m 0,0 km/h (0 Bft) O-NO 57 5 min 0,000 mm 0,0 UV-I 111 W/m 7,8 C 7,9 C 0,0 km/h (0 Bft) 0,00 %
26.08.2015 07:05 8,5 C 98 % 1022,0 hPa 0,0 l/m 0,0 km/h (0 Bft) O-NO 57 5 min 0,000 mm 0,0 UV-I 119 W/m 8,2 C 8,5 C 0,0 km/h (0 Bft) 0,00 %
26.08.2015 07:10 8,9 C 97 % 1022,1 hPa 0,0 l/m 0,0 km/h (0 Bft) O-NO 57 5 min 0,000 mm 0,0 UV-I 123 W/m 8,4 C 8,9 C 0,0 km/h (0 Bft) 0,00 %
26.08.2015 07:15 9,4 C 94 % 1022,0 hPa 0,0 l/m 0,0 km/h (0 Bft) O-NO 57 5 min 0,000 mm 0,0 UV-I 125 W/m 8,5 C 9,4 C 0,0 km/h (0 Bft) 0,00 %
26.08.2015 07:20 9,9 C 89 % 1022,1 hPa 0,0 l/m 0,0 km/h (0 Bft) NO 45 5 min 0,000 mm 0,0 UV-I 126 W/m 8,2 C 9,9 C 0,0 km/h (0 Bft) 0,00 %
26.08.2015 07:25 10,4 C 84 % 1022,0 hPa 0,0 l/m 0,0 km/h (0 Bft) NO 41 5 min 0,000 mm 0,0 UV-I 127 W/m 7,8 C 10,4 C 0,0 km/h (0 Bft) 0,00 %
26.08.2015 07:30 10,9 C 79 % 1022,0 hPa 0,0 l/m 0,0 km/h (0 Bft) NO 43 5 min 0,000 mm 0,0 UV-I 128 W/m 7,4 C 10,9 C 0,0 km/h (0 Bft) 0,00 %
26.08.2015 07:35 11,6 C 77 % 1021,9 hPa 0,0 l/m 0,0 km/h (0 Bft) NO 45 5 min 0,000 mm 1,0 UV-I 126 W/m 7,7 C 11,6 C 0,0 km/h (0 Bft) 0,00 %
26.08.2015 07:40 12,2 C 75 % 1022,2 hPa 0,0 l/m 0,0 km/h (0 Bft) NO 45 0 min 0,000 mm 1,0 UV-I 122 W/m 7,9 C 12,2 C 0,0 km/h (0 Bft) 0,00 %
26.08.2015 07:45 12,9 C 73 % 1022,1 hPa 0,0 l/m 0,0 km/h (0 Bft) NO 45 0 min 0,000 mm 1,0 UV-I 121 W/m 8,2 C 12,9 C 0,0 km/h (0 Bft) 0,00 %
26.08.2015 07:50 13,4 C 71 % 1022,2 hPa 0,0 l/m 0,0 km/h (0 Bft) NO 49 0 min 0,000 mm 1,0 UV-I 122 W/m 8,3 C 13,4 C 0,0 km/h (0 Bft) 0,00 %
26.08.2015 07:55 13,6 C 70 % 1022,2 hPa 0,0 l/m 0,0 km/h (0 Bft) O-NO 63 0 min 0,000 mm 1,0 UV-I 127 W/m 8,2 C 13,6 C 0,0 km/h (0 Bft) 0,00 %
26.08.2015 08:00 13,7 C 69 % 1022,2 hPa 0,0 l/m 0,0 km/h (0 Bft) O-NO 61 0 min 0,000 mm 1,0 UV-I 132 W/m 8,1 C 13,7 C 0,0 km/h (0 Bft) 0,00 %
26.08.2015 08:05 13,6 C 67 % 1022,2 hPa 0,0 l/m 0,0 km/h (0 Bft) NO 48 0 min 0,000 mm 1,0 UV-I 137 W/m 7,6 C 13,6 C 0,0 km/h (0 Bft) 0,00 %
26.08.2015 08:10 13,5 C 68 % 1022,1 hPa 0,0 l/m 0,0 km/h (0 Bft) O-NO 73 0 min 0,000 mm 1,0 UV-I 143 W/m 7,7 C 13,5 C 0,0 km/h (0 Bft) 0,00 %
26.08.2015 08:15 13,6 C 66 % 1021,9 hPa 0,0 l/m 0,0 km/h (0 Bft) NO 46 0 min 0,000 mm 1,0 UV-I 149 W/m 7,4 C 13,6 C 0,0 km/h (0 Bft) 0,00 %
26.08.2015 08:20 14,0 C 66 % 1022,1 hPa 0,0 l/m 0,0 km/h (0 Bft) NO 52 0 min 0,000 mm 1,0 UV-I 156 W/m 7,7 C 14,0 C 0,0 km/h (0 Bft) 0,00 %
26.08.2015 08:25 14,4 C 65 % 1022,2 hPa 0,0 l/m 0,0 km/h (0 Bft) NO 50 0 min 0,000 mm 1,0 UV-I 164 W/m 7,9 C 14,4 C 0,0 km/h (0 Bft) 0,00 %
26.08.2015 08:30 14,8 C 62 % 1022,0 hPa 0,0 l/m 0,4 km/h (0 Bft) NO 54 0 min 0,000 mm 1,0 UV-I 172 W/m 7,6 C 14,8 C 4,0 km/h (1 Bft) 0,00 %
26.08.2015 08:35 15,2 C 62 % 1021,9 hPa 0,0 l/m 0,0 km/h (0 Bft) O-NO 66 0 min 0,000 mm 1,0 UV-I 180 W/m 8,0 C 15,2 C 0,0 km/h (0 Bft) 0,00 %
26.08.2015 08:40 15,4 C 61 % 1022,0 hPa 0,0 l/m 0,0 km/h (0 Bft) NO 43 0 min 0,000 mm 1,0 UV-I 189 W/m 7,9 C 15,4 C 0,0 km/h (0 Bft) 0,00 %
26.08.2015 08:45 15,6 C 61 % 1022,1 hPa 0,0 l/m 0,0 km/h (0 Bft) NO 46 0 min 0,000 mm 1,0 UV-I 198 W/m 8,1 C 15,6 C 0,0 km/h (0 Bft) 0,00 %
26.08.2015 08:50 15,9 C 59 % 1022,0 hPa 0,0 l/m 0,0 km/h (0 Bft) NO 39 0 min 0,000 mm 1,0 UV-I 208 W/m 7,9 C 15,9 C 0,0 km/h (0 Bft) 0,00 %
26.08.2015 08:55 16,3 C 58 % 1022,1 hPa 0,0 l/m 0,0 km/h (0 Bft) O 83 0 min 0,000 mm 1,0 UV-I 217 W/m 8,0 C 16,3 C 0,0 km/h (0 Bft) 0,00 %
26.08.2015 09:00 16,5 C 58 % 1022,0 hPa 0,0 l/m 0,0 km/h (0 Bft) O 87 0 min 0,000 mm 1,0 UV-I 226 W/m 8,2 C 16,5 C 0,0 km/h (0 Bft) 0,00 %
26.08.2015 09:05 16,7 C 58 % 1022,2 hPa 0,0 l/m 0,0 km/h (0 Bft) O-NO 71 0 min 0,000 mm 1,0 UV-I 236 W/m 8,4 C 16,7 C 0,0 km/h (0 Bft) 0,00 %
26.08.2015 09:10 16,9 C 55 % 1022,1 hPa 0,0 l/m 0,0 km/h (0 Bft) N-NO 29 0 min 0,000 mm 1,0 UV-I 244 W/m 7,8 C 16,9 C 0,0 km/h (0 Bft) 0,00 %
26.08.2015 09:15 17,3 C 55 % 1022,1 hPa 0,0 l/m 0,0 km/h (0 Bft) NO 39 0 min 0,000 mm 1,0 UV-I 239 W/m 8,2 C 17,3 C 0,0 km/h (0 Bft) 0,00 %
26.08.2015 09:20 17,6 C 55 % 1022,2 hPa 0,0 l/m 0,0 km/h (0 Bft) NO 46 0 min 0,000 mm 1,0 UV-I 263 W/m 8,5 C 17,6 C 0,0 km/h (0 Bft) 0,00 %
26.08.2015 09:25 17,8 C 53 % 1022,0 hPa 0,0 l/m 0,0 km/h (0 Bft) NO 36 0 min 0,000 mm 1,0 UV-I 273 W/m 8,1 C 17,8 C 0,0 km/h (0 Bft) 0,00 %
26.08.2015 09:30 18,0 C 53 % 1022,0 hPa 0,0 l/m 0,0 km/h (0 Bft) O-NO 74 0 min 0,000 mm 1,0 UV-I 284 W/m 8,3 C 18,0 C 0,0 km/h (0 Bft) 0,00 %
26.08.2015 09:35 18,2 C 53 % 1022,1 hPa 0,0 l/m 2,9 km/h (1 Bft) O-SO 116 5 min 0,000 mm 2,0 UV-I 297 W/m 8,5 C 18,2 C 7,9 km/h (2 Bft) 0,00 %
26.08.2015 09:40 18,3 C 52 % 1022,1 hPa 0,0 l/m 0,0 km/h (0 Bft) NO 51 0 min 0,000 mm 1,0 UV-I 287 W/m 8,3 C 18,3 C 0,0 km/h (0 Bft) 0,00 %
26.08.2015 09:45 18,4 C 52 % 1022,0 hPa 0,0 l/m 0,0 km/h (0 Bft) N-NO 31 5 min 0,000 mm 2,0 UV-I 322 W/m 8,4 C 18,4 C 0,0 km/h (0 Bft) 0,00 %
26.08.2015 09:50 18,6 C 51 % 1022,0 hPa 0,0 l/m 0,0 km/h (0 Bft) N 352 0 min 0,000 mm 1,0 UV-I 128 W/m 8,3 C 18,6 C 0,0 km/h (0 Bft) 0,00 %
26.08.2015 09:55 18,8 C 52 % 1021,9 hPa 0,0 l/m 3,2 km/h (1 Bft) SO 128 0 min 0,000 mm 1,0 UV-I 124 W/m 8,7 C 18,8 C 4,0 km/h (1 Bft) 0,00 %
26.08.2015 10:00 18,4 C 54 % 1022,0 hPa 0,0 l/m 0,0 km/h (0 Bft) N-NO 30 5 min 0,000 mm 1,0 UV-I 339 W/m 8,9 C 18,4 C 0,0 km/h (0 Bft) 0,00 %
26.08.2015 10:05 18,1 C 53 % 1022,1 hPa 0,0 l/m 0,0 km/h (0 Bft) O-NO 74 5 min 0,000 mm 2,0 UV-I 362 W/m 8,4 C 18,1 C 0,0 km/h (0 Bft) 0,00 %
26.08.2015 10:10 18,4 C 53 % 1022,1 hPa 0,0 l/m 0,7 km/h (0 Bft) O-NO 70 5 min 0,000 mm 2,0 UV-I 382 W/m 8,6 C 18,4 C 4,0 km/h (1 Bft) 0,00 %
26.08.2015 10:15 18,9 C 52 % 1021,9 hPa 0,0 l/m 1,8 km/h (1 Bft) O 101 5 min 0,000 mm 2,0 UV-I 396 W/m 8,8 C 18,9 C 4,0 km/h (1 Bft) 0,00 %
26.08.2015 10:20 19,3 C 51 % 1022,3 hPa 0,0 l/m 1,8 km/h (1 Bft) O 98 5 min 0,000 mm 2,0 UV-I 410 W/m 8,9 C 19,3 C 4,0 km/h (1 Bft) 0,00 %
26.08.2015 10:25 19,6 C 50 % 1021,9 hPa 0,0 l/m 4,7 km/h (1 Bft) O-SO 120 5 min 0,000 mm 2,0 UV-I 423 W/m 8,9 C 19,6 C 7,9 km/h (2 Bft) 0,00 %
26.08.2015 10:30 19,8 C 50 % 1021,8 hPa 0,0 l/m 4,3 km/h (1 Bft) O 83 5 min 0,000 mm 2,0 UV-I 436 W/m 9,1 C 19,8 C 7,9 km/h (2 Bft) 0,00 %
26.08.2015 10:35 19,9 C 49 % 1021,9 hPa 0,0 l/m 1,4 km/h (1 Bft) N-NO 33 5 min 0,000 mm 2,0 UV-I 447 W/m 8,9 C 19,9 C 4,0 km/h (1 Bft) 0,00 %
26.08.2015 10:40 20,1 C 48 % 1021,8 hPa 0,0 l/m 0,7 km/h (0 Bft) O-SO 120 5 min 0,000 mm 2,0 UV-I 464 W/m 8,7 C 20,1 C 4,0 km/h (1 Bft) 0,00 %
26.08.2015 10:45 20,5 C 45 % 1021,8 hPa 0,0 l/m 5,4 km/h (1 Bft) O-SO 104 5 min 0,000 mm 2,0 UV-I 480 W/m 8,2 C 20,5 C 7,9 km/h (2 Bft) 0,00 %
26.08.2015 10:50 20,8 C 44 % 1021,8 hPa 0,0 l/m 1,4 km/h (1 Bft) O 95 5 min 0,000 mm 2,0 UV-I 493 W/m 8,1 C 20,8 C 4,0 km/h (1 Bft) 0,00 %
26.08.2015 10:55 20,9 C 44 % 1021,6 hPa 0,0 l/m 0,0 km/h (0 Bft) N 358 5 min 0,000 mm 2,0 UV-I 507 W/m 8,2 C 20,9 C 0,0 km/h (0 Bft) 0,00 %
26.08.2015 11:00 21,2 C 44 % 1021,7 hPa 0,0 l/m 1,4 km/h (1 Bft) O 90 5 min 0,000 mm 2,0 UV-I 525 W/m 8,5 C 21,2 C 4,0 km/h (1 Bft) 0,00 %
26.08.2015 11:05 21,4 C 43 % 1021,7 hPa 0,0 l/m 1,8 km/h (1 Bft) O 100 5 min 0,000 mm 3,0 UV-I 540 W/m 8,3 C 21,4 C 4,0 km/h (1 Bft) 0,00 %
26.08.2015 11:10 21,7 C 44 % 1021,8 hPa 0,0 l/m 3,2 km/h (1 Bft) NO 42 5 min 0,000 mm 3,0 UV-I 554 W/m 8,9 C 21,7 C 7,9 km/h (2 Bft) 0,00 %
26.08.2015 11:15 21,9 C 41 % 1021,6 hPa 0,0 l/m 2,9 km/h (1 Bft) S 180 5 min 0,000 mm 3,0 UV-I 568 W/m 8,0 C 21,9 C 4,0 km/h (1 Bft) 0,00 %
26.08.2015 11:20 21,8 C 42 % 1021,4 hPa 0,0 l/m 4,3 km/h (1 Bft) O-SO 106 5 min 0,000 mm 3,0 UV-I 577 W/m 8,3 C 21,8 C 7,9 km/h (2 Bft) 0,00 %
26.08.2015 11:25 21,7 C 41 % 1021,5 hPa 0,0 l/m 0,7 km/h (0 Bft) SO 124 5 min 0,000 mm 3,0 UV-I 594 W/m 7,9 C 21,7 C 4,0 km/h (1 Bft) 0,00 %
26.08.2015 11:30 21,9 C 42 % 1021,4 hPa 0,0 l/m 10,8 km/h (2 Bft) O-SO 112 5 min 0,000 mm 3,0 UV-I 608 W/m 8,4 C 20,5 C 11,9 km/h (2 Bft) 0,00 %
26.08.2015 11:35 22,0 C 42 % 1021,5 hPa 0,0 l/m 0,0 km/h (0 Bft) NO 44 5 min 0,000 mm 3,0 UV-I 622 W/m 8,5 C 22,0 C 0,0 km/h (0 Bft) 0,00 %
26.08.2015 11:40 22,3 C 40 % 1021,2 hPa 0,0 l/m 10,4 km/h (2 Bft) O-NO 69 5 min 0,000 mm 3,0 UV-I 643 W/m 8,0 C 21,1 C 11,9 km/h (2 Bft) 0,00 %
26.08.2015 11:45 22,5 C 42 % 1021,3 hPa 0,0 l/m 0,7 km/h (0 Bft) O 88 5 min 0,000 mm 3,0 UV-I 654 W/m 8,9 C 22,5 C 4,0 km/h (1 Bft) 0,00 %
26.08.2015 11:50 22,5 C 41 % 1021,3 hPa 0,0 l/m 6,5 km/h (2 Bft) S 174 5 min 0,000 mm 3,0 UV-I 668 W/m 8,6 C 22,5 C 7,9 km/h (2 Bft) 0,00 %
26.08.2015 11:55 22,6 C 39 % 1021,3 hPa 0,0 l/m 4,0 km/h (1 Bft) O-SO 123 5 min 0,000 mm 3,0 UV-I 680 W/m 7,9 C 22,6 C 7,9 km/h (2 Bft) 0,00 %
26.08.2015 12:00 22,8 C 38 % 1021,1 hPa 0,0 l/m 5,8 km/h (2 Bft) O 94 5 min 0,000 mm 3,0 UV-I 694 W/m 7,7 C 22,8 C 7,9 km/h (2 Bft) 0,00 %
26.08.2015 12:05 23,2 C 38 % 1020,9 hPa 0,0 l/m 0,0 km/h (0 Bft) NO 45 5 min 0,000 mm 3,0 UV-I 708 W/m 8,1 C 23,2 C 0,0 km/h (0 Bft) 0,00 %
26.08.2015 12:10 23,4 C 36 % 1020,8 hPa 0,0 l/m 6,5 km/h (2 Bft) O 83 5 min 0,000 mm 3,0 UV-I 716 W/m 7,5 C 23,4 C 15,8 km/h (3 Bft) 0,00 %
26.08.2015 12:15 23,4 C 34 % 1020,9 hPa 0,0 l/m 4,7 km/h (1 Bft) O-SO 106 5 min 0,000 mm 3,0 UV-I 722 W/m 6,6 C 23,4 C 7,9 km/h (2 Bft) 0,00 %
26.08.2015 12:20 23,3 C 36 % 1020,8 hPa 0,0 l/m 9,0 km/h (2 Bft) O-SO 118 5 min 0,000 mm 3,0 UV-I 726 W/m 7,4 C 22,5 C 11,9 km/h (2 Bft) 0,00 %
26.08.2015 12:25 23,3 C 34 % 1020,5 hPa 0,0 l/m 4,7 km/h (1 Bft) O-SO 107 5 min 0,000 mm 3,0 UV-I 725 W/m 6,6 C 23,3 C 7,9 km/h (2 Bft) 0,00 %
26.08.2015 12:30 23,4 C 33 % 1020,6 hPa 0,0 l/m 7,2 km/h (2 Bft) O 82 5 min 0,000 mm 4,0 UV-I 732 W/m 6,2 C 23,2 C 7,9 km/h (2 Bft) 0,00 %
26.08.2015 12:35 23,5 C 32 % 1020,5 hPa 0,0 l/m 4,3 km/h (1 Bft) O-NO 64 5 min 0,000 mm 4,0 UV-I 734 W/m 5,8 C 23,5 C 7,9 km/h (2 Bft) 0,00 %
26.08.2015 12:40 23,5 C 32 % 1020,6 hPa 0,0 l/m 6,5 km/h (2 Bft) O-NO 73 5 min 0,000 mm 4,0 UV-I 744 W/m 5,8 C 23,5 C 7,9 km/h (2 Bft) 0,00 %
26.08.2015 12:45 23,4 C 32 % 1020,3 hPa 0,0 l/m 0,0 km/h (0 Bft) N-NO 27 5 min 0,000 mm 4,0 UV-I 733 W/m 5,8 C 23,4 C 0,0 km/h (0 Bft) 0,00 %
26.08.2015 12:50 23,4 C 32 % 1020,4 hPa 0,0 l/m 1,8 km/h (1 Bft) S 191 5 min 0,000 mm 4,0 UV-I 743 W/m 5,8 C 23,4 C 4,0 km/h (1 Bft) 0,00 %
26.08.2015 12:55 23,5 C 33 % 1020,1 hPa 0,0 l/m 1,4 km/h (1 Bft) O-NO 77 5 min 0,000 mm 4,0 UV-I 762 W/m 6,3 C 23,5 C 4,0 km/h (1 Bft) 0,00 %
26.08.2015 13:00 23,7 C 31 % 1020,3 hPa 0,0 l/m 2,2 km/h (1 Bft) N-NO 20 5 min 0,000 mm 4,0 UV-I 767 W/m 5,6 C 23,7 C 4,0 km/h (1 Bft) 0,00 %
26.08.2015 13:05 23,9 C 31 % 1019,9 hPa 0,0 l/m 0,4 km/h (0 Bft) O-SO 112 5 min 0,000 mm 4,0 UV-I 776 W/m 5,7 C 23,9 C 4,0 km/h (1 Bft) 0,00 %
26.08.2015 13:10 24,0 C 30 % 1019,9 hPa 0,0 l/m 6,8 km/h (2 Bft) S-SW 192 5 min 0,000 mm 4,0 UV-I 786 W/m 5,3 C 23,9 C 11,9 km/h (2 Bft) 0,00 %
26.08.2015 13:15 24,0 C 31 % 1019,9 hPa 0,0 l/m 2,2 km/h (1 Bft) O 90 5 min 0,000 mm 4,0 UV-I 779 W/m 5,8 C 24,0 C 7,9 km/h (2 Bft) 0,00 %
26.08.2015 13:20 24,1 C 30 % 1019,8 hPa 0,0 l/m 0,0 km/h (0 Bft) SW 220 5 min 0,000 mm 4,0 UV-I 762 W/m 5,4 C 24,1 C 0,0 km/h (0 Bft) 0,00 %
26.08.2015 13:25 24,3 C 30 % 1019,6 hPa 0,0 l/m 9,7 km/h (2 Bft) O 96 5 min 0,000 mm 4,0 UV-I 792 W/m 5,6 C 23,5 C 11,9 km/h (2 Bft) 0,00 %
26.08.2015 13:30 24,4 C 25 % 1019,7 hPa 0,0 l/m 4,7 km/h (1 Bft) O-SO 108 5 min 0,000 mm 4,0 UV-I 801 W/m 3,1 C 24,4 C 7,9 km/h (2 Bft) 0,00 %
26.08.2015 13:35 24,6 C 28 % 1019,6 hPa 0,0 l/m 5,4 km/h (1 Bft) O-SO 111 5 min 0,000 mm 4,0 UV-I 804 W/m 4,9 C 24,6 C 7,9 km/h (2 Bft) 0,00 %
26.08.2015 13:40 24,6 C 27 % 1019,3 hPa 0,0 l/m 0,4 km/h (0 Bft) N 355 5 min 0,000 mm 4,0 UV-I 803 W/m 4,4 C 24,6 C 4,0 km/h (1 Bft) 0,00 %
26.08.2015 13:45 24,6 C 27 % 1019,3 hPa 0,0 l/m 4,3 km/h (1 Bft) O-SO 118 5 min 0,000 mm 4,0 UV-I 812 W/m 4,4 C 24,6 C 7,9 km/h (2 Bft) 0,00 %
26.08.2015 13:50 24,7 C 25 % 1019,1 hPa 0,0 l/m 4,0 km/h (1 Bft) O-SO 105 5 min 0,000 mm 3,0 UV-I 820 W/m 3,3 C 24,7 C 7,9 km/h (2 Bft) 0,00 %
26.08.2015 13:55 25,0 C 24 % 1019,0 hPa 0,0 l/m 0,7 km/h (0 Bft) NO 36 5 min 0,000 mm 3,0 UV-I 824 W/m 3,0 C 25,0 C 4,0 km/h (1 Bft) 0,00 %
26.08.2015 14:00 25,1 C 24 % 1018,9 hPa 0,0 l/m 4,0 km/h (1 Bft) SO 128 5 min 0,000 mm 3,0 UV-I 826 W/m 3,1 C 25,1 C 7,9 km/h (2 Bft) 0,00 %
26.08.2015 14:05 25,1 C 23 % 1018,9 hPa 0,0 l/m 0,0 km/h (0 Bft) NO 51 5 min 0,000 mm 3,0 UV-I 825 W/m 2,5 C 25,1 C 0,0 km/h (0 Bft) 0,00 %
26.08.2015 14:10 25,0 C 22 % 1018,9 hPa 0,0 l/m 6,8 km/h (2 Bft) O-SO 105 5 min 0,000 mm 3,0 UV-I 832 W/m 1,8 C 24,9 C 11,9 km/h (2 Bft) 0,00 %
26.08.2015 14:15 25,0 C 22 % 1018,6 hPa 0,0 l/m 4,3 km/h (1 Bft) O-NO 60 5 min 0,000 mm 3,0 UV-I 834 W/m 1,8 C 25,0 C 7,9 km/h (2 Bft) 0,00 %
26.08.2015 14:20 25,2 C 22 % 1018,4 hPa 0,0 l/m 2,2 km/h (1 Bft) SO 125 5 min 0,000 mm 3,0 UV-I 839 W/m 2,0 C 25,2 C 4,0 km/h (1 Bft) 0,00 %
26.08.2015 14:25 25,5 C 21 % 1018,6 hPa 0,0 l/m 5,8 km/h (2 Bft) O-NO 73 5 min 0,000 mm 3,0 UV-I 842 W/m 1,6 C 25,5 C 7,9 km/h (2 Bft) 0,00 %
26.08.2015 14:30 25,6 C 20 % 1018,7 hPa 0,0 l/m 0,7 km/h (0 Bft) SO 132 5 min 0,000 mm 3,0 UV-I 847 W/m 1,0 C 25,6 C 4,0 km/h (1 Bft) 0,00 %
26.08.2015 14:35 25,7 C 20 % 1018,7 hPa 0,0 l/m 4,3 km/h (1 Bft) O-NO 77 5 min 0,000 mm 3,0 UV-I 845 W/m 1,1 C 25,7 C 7,9 km/h (2 Bft) 0,00 %
26.08.2015 14:40 25,8 C 20 % 1018,6 hPa 0,0 l/m 9,7 km/h (2 Bft) O-NO 73 5 min 0,000 mm 3,0 UV-I 841 W/m 1,1 C 25,1 C 15,8 km/h (3 Bft) 0,00 %
26.08.2015 14:45 25,8 C 20 % 1018,5 hPa 0,0 l/m 2,2 km/h (1 Bft) SO 124 5 min 0,000 mm 3,0 UV-I 841 W/m 1,1 C 25,8 C 4,0 km/h (1 Bft) 0,00 %
26.08.2015 14:50 25,9 C 18 % 1018,4 hPa 0,0 l/m 2,2 km/h (1 Bft) N 6 5 min 0,000 mm 3,0 UV-I 839 W/m -0,2 C 25,9 C 4,0 km/h (1 Bft) 0,00 %
26.08.2015 14:55 26,0 C 20 % 1018,4 hPa 0,0 l/m 2,9 km/h (1 Bft) N-NW 336 5 min 0,000 mm 3,0 UV-I 837 W/m 1,3 C 26,0 C 4,0 km/h (1 Bft) 0,00 %
26.08.2015 15:00 26,0 C 18 % 1018,3 hPa 0,0 l/m 2,2 km/h (1 Bft) NO 47 5 min 0,000 mm 3,0 UV-I 843 W/m -0,2 C 26,0 C 7,9 km/h (2 Bft) 0,00 %
26.08.2015 15:05 26,0 C 19 % 1018,3 hPa 0,0 l/m 0,0 km/h (0 Bft) O-NO 63 5 min 0,000 mm 3,0 UV-I 845 W/m 0,6 C 26,0 C 0,0 km/h (0 Bft) 0,00 %
26.08.2015 15:10 26,2 C 19 % 1018,2 hPa 0,0 l/m 7,9 km/h (2 Bft) O 80 5 min 0,000 mm 3,0 UV-I 843 W/m 0,8 C 25,9 C 11,9 km/h (2 Bft) 0,00 %
26.08.2015 15:15 26,2 C 19 % 1018,3 hPa 0,0 l/m 3,2 km/h (1 Bft) NO 55 5 min 0,000 mm 2,0 UV-I 840 W/m 0,8 C 26,2 C 7,9 km/h (2 Bft) 0,00 %
26.08.2015 15:20 26,1 C 19 % 1018,3 hPa 0,0 l/m 12,2 km/h (2 Bft) O-SO 108 5 min 0,000 mm 1,0 UV-I 833 W/m 0,7 C 25,0 C 15,8 km/h (3 Bft) 0,00 %
26.08.2015 15:25 26,1 C 18 % 1018,2 hPa 0,0 l/m 2,9 km/h (1 Bft) SO 139 5 min 0,000 mm 1,0 UV-I 826 W/m -0,1 C 26,1 C 4,0 km/h (1 Bft) 0,00 %
26.08.2015 15:30 26,0 C 20 % 1018,1 hPa 0,0 l/m 5,8 km/h (2 Bft) O-SO 106 5 min 0,000 mm 1,0 UV-I 827 W/m 1,3 C 26,0 C 11,9 km/h (2 Bft) 0,00 %
26.08.2015 15:35 25,9 C 20 % 1018,1 hPa 0,0 l/m 0,4 km/h (0 Bft) O-NO 67 5 min 0,000 mm 1,0 UV-I 823 W/m 1,2 C 25,9 C 4,0 km/h (1 Bft) 0,00 %
26.08.2015 15:40 25,9 C 18 % 1018,2 hPa 0,0 l/m 4,7 km/h (1 Bft) O-SO 116 5 min 0,000 mm 1,0 UV-I 814 W/m -0,2 C 25,9 C 7,9 km/h (2 Bft) 0,00 %
26.08.2015 15:45 26,0 C 18 % 1017,9 hPa 0,0 l/m 4,7 km/h (1 Bft) SO 145 5 min 0,000 mm 1,0 UV-I 818 W/m -0,2 C 26,0 C 7,9 km/h (2 Bft) 0,00 %
26.08.2015 15:50 26,0 C 18 % 1017,9 hPa 0,0 l/m 1,4 km/h (1 Bft) O 91 5 min 0,000 mm 1,0 UV-I 818 W/m -0,2 C 26,0 C 4,0 km/h (1 Bft) 0,00 %
26.08.2015 15:55 26,1 C 18 % 1017,8 hPa 0,0 l/m 2,9 km/h (1 Bft) N 350 5 min 0,000 mm 1,0 UV-I 820 W/m -0,1 C 26,1 C 4,0 km/h (1 Bft) 0,00 %
26.08.2015 16:00 26,0 C 18 % 1017,9 hPa 0,0 l/m 4,3 km/h (1 Bft) N-NO 26 5 min 0,000 mm 1,0 UV-I 807 W/m -0,2 C 26,0 C 7,9 km/h (2 Bft) 0,00 %
26.08.2015 16:05 26,0 C 19 % 1017,6 hPa 0,0 l/m 5,4 km/h (1 Bft) S-SW 203 5 min 0,000 mm 1,0 UV-I 813 W/m 0,6 C 26,0 C 7,9 km/h (2 Bft) 0,00 %
26.08.2015 16:10 25,9 C 18 % 1017,6 hPa 0,0 l/m 7,2 km/h (2 Bft) S-SO 151 5 min 0,000 mm 1,0 UV-I 802 W/m -0,2 C 25,7 C 7,9 km/h (2 Bft) 0,00 %
26.08.2015 16:15 25,9 C 18 % 1017,7 hPa 0,0 l/m 10,8 km/h (2 Bft) SO 139 5 min 0,000 mm 1,0 UV-I 796 W/m -0,2 C 25,0 C 15,8 km/h (3 Bft) 0,00 %
26.08.2015 16:20 25,9 C 19 % 1017,7 hPa 0,0 l/m 4,7 km/h (1 Bft) O-SO 114 5 min 0,000 mm 1,0 UV-I 796 W/m 0,5 C 25,9 C 7,9 km/h (2 Bft) 0,00 %
26.08.2015 16:25 26,0 C 19 % 1017,5 hPa 0,0 l/m 9,7 km/h (2 Bft) O-SO 122 5 min 0,000 mm 1,0 UV-I 782 W/m 0,6 C 25,3 C 11,9 km/h (2 Bft) 0,00 %
26.08.2015 16:30 25,9 C 20 % 1017,2 hPa 0,0 l/m 4,0 km/h (1 Bft) O-NO 62 5 min 0,000 mm 1,0 UV-I 768 W/m 1,2 C 25,9 C 7,9 km/h (2 Bft) 0,00 %
26.08.2015 16:35 25,7 C 20 % 1017,5 hPa 0,0 l/m 0,0 km/h (0 Bft) NO 38 5 min 0,000 mm 1,0 UV-I 570 W/m 1,1 C 25,7 C 0,0 km/h (0 Bft) 0,00 %
26.08.2015 16:40 25,5 C 21 % 1017,4 hPa 0,0 l/m 2,9 km/h (1 Bft) S-SO 148 0 min 0,000 mm 1,0 UV-I 200 W/m 1,6 C 25,5 C 4,0 km/h (1 Bft) 0,00 %
26.08.2015 16:45 25,5 C 21 % 1017,4 hPa 0,0 l/m 6,5 km/h (2 Bft) O-SO 118 0 min 0,000 mm 1,0 UV-I 144 W/m 1,6 C 25,5 C 7,9 km/h (2 Bft) 0,00 %
26.08.2015 16:50 25,6 C 21 % 1017,4 hPa 0,0 l/m 0,7 km/h (0 Bft) O-SO 110 0 min 0,000 mm 1,0 UV-I 143 W/m 1,6 C 25,6 C 4,0 km/h (1 Bft) 0,00 %
26.08.2015 16:55 25,6 C 21 % 1017,2 hPa 0,0 l/m 0,4 km/h (0 Bft) NO 36 0 min 0,000 mm 1,0 UV-I 145 W/m 1,6 C 25,6 C 4,0 km/h (1 Bft) 0,00 %
26.08.2015 17:00 25,6 C 21 % 1017,2 hPa 0,0 l/m 1,4 km/h (1 Bft) O-NO 75 0 min 0,000 mm 1,0 UV-I 155 W/m 1,6 C 25,6 C 4,0 km/h (1 Bft) 0,00 %
26.08.2015 17:05 25,6 C 21 % 1017,3 hPa 0,0 l/m 4,0 km/h (1 Bft) O 91 0 min 0,000 mm 1,0 UV-I 156 W/m 1,6 C 25,6 C 7,9 km/h (2 Bft) 0,00 %
26.08.2015 17:10 25,5 C 22 % 1017,1 hPa 0,0 l/m 2,9 km/h (1 Bft) NO 41 5 min 0,000 mm 1,0 UV-I 280 W/m 2,2 C 25,5 C 4,0 km/h (1 Bft) 0,00 %
26.08.2015 17:15 25,5 C 22 % 1017,0 hPa 0,0 l/m 0,4 km/h (0 Bft) O-NO 78 5 min 0,000 mm 1,0 UV-I 684 W/m 2,2 C 25,5 C 4,0 km/h (1 Bft) 0,00 %
26.08.2015 17:20 25,7 C 20 % 1016,8 hPa 0,0 l/m 10,4 km/h (2 Bft) O-SO 106 5 min 0,000 mm 1,0 UV-I 707 W/m 1,1 C 24,9 C 15,8 km/h (3 Bft) 0,00 %
26.08.2015 17:25 25,9 C 21 % 1017,0 hPa 0,0 l/m 4,3 km/h (1 Bft) O 90 5 min 0,000 mm 1,0 UV-I 700 W/m 1,9 C 25,9 C 7,9 km/h (2 Bft) 0,00 %
26.08.2015 17:30 26,0 C 21 % 1016,9 hPa 0,0 l/m 5,4 km/h (1 Bft) O-NO 68 5 min 0,000 mm 1,0 UV-I 682 W/m 2,0 C 26,0 C 7,9 km/h (2 Bft) 0,00 %
26.08.2015 17:35 26,0 C 23 % 1016,7 hPa 0,0 l/m 3,2 km/h (1 Bft) O-SO 112 5 min 0,000 mm 1,0 UV-I 689 W/m 3,3 C 26,0 C 7,9 km/h (2 Bft) 0,00 %
26.08.2015 17:40 26,0 C 22 % 1016,9 hPa 0,0 l/m 3,2 km/h (1 Bft) SO 144 5 min 0,000 mm 1,0 UV-I 664 W/m 2,6 C 26,0 C 4,0 km/h (1 Bft) 0,00 %
26.08.2015 17:45 26,1 C 22 % 1016,7 hPa 0,0 l/m 1,4 km/h (1 Bft) O-NO 64 5 min 0,000 mm 1,0 UV-I 649 W/m 2,7 C 26,1 C 4,0 km/h (1 Bft) 0,00 %
26.08.2015 17:50 26,2 C 23 % 1016,8 hPa 0,0 l/m 0,4 km/h (0 Bft) O-NO 72 5 min 0,000 mm 1,0 UV-I 635 W/m 3,4 C 26,2 C 4,0 km/h (1 Bft) 0,00 %
26.08.2015 17:55 26,2 C 22 % 1016,7 hPa 0,0 l/m 6,5 km/h (2 Bft) S-SO 147 5 min 0,000 mm 1,0 UV-I 628 W/m 2,8 C 26,2 C 7,9 km/h (2 Bft) 0,00 %
26.08.2015 18:00 26,0 C 24 % 1016,8 hPa 0,0 l/m 1,4 km/h (1 Bft) S-SO 165 5 min 0,000 mm 1,0 UV-I 626 W/m 3,9 C 26,0 C 4,0 km/h (1 Bft) 0,00 %
26.08.2015 18:05 25,8 C 23 % 1016,8 hPa 0,0 l/m 0,7 km/h (0 Bft) O 100 5 min 0,000 mm 1,0 UV-I 565 W/m 3,1 C 25,8 C 4,0 km/h (1 Bft) 0,00 %
26.08.2015 18:10 25,8 C 25 % 1016,7 hPa 0,0 l/m 0,4 km/h (0 Bft) O-NO 58 5 min 0,000 mm 1,0 UV-I 533 W/m 4,3 C 25,8 C 4,0 km/h (1 Bft) 0,00 %
26.08.2015 18:15 25,6 C 26 % 1016,6 hPa 0,0 l/m 0,0 km/h (0 Bft) O-SO 111 5 min 0,000 mm 1,0 UV-I 510 W/m 4,7 C 25,6 C 0,0 km/h (0 Bft) 0,00 %
26.08.2015 18:20 25,5 C 26 % 1016,6 hPa 0,0 l/m 9,4 km/h (2 Bft) O-SO 114 5 min 0,000 mm 1,0 UV-I 537 W/m 4,6 C 24,8 C 11,9 km/h (2 Bft) 0,00 %
26.08.2015 18:25 25,4 C 25 % 1016,5 hPa 0,0 l/m 1,4 km/h (1 Bft) N-NO 16 5 min 0,000 mm 1,0 UV-I 515 W/m 3,9 C 25,4 C 4,0 km/h (1 Bft) 0,00 %
26.08.2015 18:30 25,3 C 26 % 1016,4 hPa 0,0 l/m 6,8 km/h (2 Bft) O 98 5 min 0,000 mm 1,0 UV-I 462 W/m 4,4 C 25,2 C 7,9 km/h (2 Bft) 0,00 %
26.08.2015 18:35 25,2 C 26 % 1016,1 hPa 0,0 l/m 9,0 km/h (2 Bft) O-SO 112 5 min 0,000 mm 1,0 UV-I 386 W/m 4,3 C 24,6 C 11,9 km/h (2 Bft) 0,00 %
26.08.2015 18:40 25,0 C 28 % 1016,4 hPa 0,0 l/m 4,3 km/h (1 Bft) NO 49 5 min 0,000 mm 0,0 UV-I 260 W/m 5,2 C 25,0 C 7,9 km/h (2 Bft) 0,00 %
26.08.2015 18:45 24,7 C 30 % 1016,3 hPa 0,0 l/m 7,2 km/h (2 Bft) O 96 5 min 0,000 mm 0,0 UV-I 314 W/m 6,0 C 24,5 C 15,8 km/h (3 Bft) 0,00 %
26.08.2015 18:50 24,5 C 30 % 1016,0 hPa 0,0 l/m 0,0 km/h (0 Bft) SO 140 5 min 0,000 mm 0,0 UV-I 277 W/m 5,8 C 24,5 C 0,0 km/h (0 Bft) 0,00 %
26.08.2015 18:56 24,4 C 30 % 1016,2 hPa 0,0 l/m 7,9 km/h (2 Bft) O 81 6 min 0,000 mm 0,0 UV-I 222 W/m 5,7 C 24,0 C 11,9 km/h (2 Bft) 0,00 %
26.08.2015 19:01 24,2 C 31 % 1016,3 hPa 0,0 l/m 3,2 km/h (1 Bft) O 80 5 min 0,000 mm 0,0 UV-I 184 W/m 6,0 C 24,2 C 4,0 km/h (1 Bft) 0,00 %
26.08.2015 19:06 24,0 C 33 % 1016,0 hPa 0,0 l/m 0,7 km/h (0 Bft) O 99 5 min 0,000 mm 0,0 UV-I 120 W/m 6,7 C 24,0 C 4,0 km/h (1 Bft) 0,00 %
26.08.2015 19:11 23,7 C 34 % 1015,8 hPa 0,0 l/m 3,2 km/h (1 Bft) NO 38 5 min 0,000 mm 0,0 UV-I 150 W/m 6,9 C 23,7 C 7,9 km/h (2 Bft) 0,00 %
26.08.2015 19:16 23,4 C 36 % 1015,9 hPa 0,0 l/m 4,3 km/h (1 Bft) O-NO 67 5 min 0,000 mm 0,0 UV-I 186 W/m 7,5 C 23,4 C 7,9 km/h (2 Bft) 0,00 %
26.08.2015 19:21 23,2 C 37 % 1016,1 hPa 0,0 l/m 10,4 km/h (2 Bft) SO 133 5 min 0,000 mm 0,0 UV-I 197 W/m 7,7 C 22,1 C 11,9 km/h (2 Bft) 0,00 %
26.08.2015 19:26 23,1 C 38 % 1015,9 hPa 0,0 l/m 0,7 km/h (0 Bft) S 176 5 min 0,000 mm 0,0 UV-I 138 W/m 8,0 C 23,1 C 4,0 km/h (1 Bft) 0,00 %
26.08.2015 19:31 23,1 C 40 % 1015,9 hPa 0,0 l/m 4,7 km/h (1 Bft) O-SO 107 5 min 0,000 mm 0,0 UV-I 73 W/m 8,8 C 23,1 C 7,9 km/h (2 Bft) 0,00 %
26.08.2015 19:36 22,9 C 42 % 1016,1 hPa 0,0 l/m 2,2 km/h (1 Bft) O-SO 117 5 min 0,000 mm 0,0 UV-I 53 W/m 9,3 C 22,9 C 4,0 km/h (1 Bft) 0,00 %
26.08.2015 19:41 22,6 C 42 % 1015,9 hPa 0,0 l/m 1,4 km/h (1 Bft) O 93 5 min 0,000 mm 0,0 UV-I 41 W/m 9,0 C 22,6 C 4,0 km/h (1 Bft) 0,00 %
26.08.2015 19:46 22,3 C 43 % 1015,9 hPa 0,0 l/m 0,0 km/h (0 Bft) O 89 5 min 0,000 mm 0,0 UV-I 29 W/m 9,1 C 22,3 C 0,0 km/h (0 Bft) 0,00 %
26.08.2015 19:51 22,0 C 42 % 1016,1 hPa 0,0 l/m 0,0 km/h (0 Bft) O-NO 57 0 min 0,000 mm 0,0 UV-I 18 W/m 8,5 C 22,0 C 0,0 km/h (0 Bft) 0,00 %
26.08.2015 19:56 21,7 C 44 % 1016,0 hPa 0,0 l/m 4,7 km/h (1 Bft) O-SO 105 0 min 0,000 mm 0,0 UV-I 8 W/m 8,9 C 21,7 C 7,9 km/h (2 Bft) 0,00 %
26.08.2015 20:01 21,3 C 45 % 1016,0 hPa 0,0 l/m 1,8 km/h (1 Bft) O 101 0 min 0,000 mm 0,0 UV-I 3 W/m 8,9 C 21,3 C 4,0 km/h (1 Bft) 0,00 %
26.08.2015 20:06 21,1 C 45 % 1016,0 hPa 0,0 l/m 1,4 km/h (1 Bft) SO 128 0 min 0,000 mm 0,0 UV-I 0 W/m 8,7 C 21,1 C 4,0 km/h (1 Bft) 0,00 %
26.08.2015 20:11 21,0 C 45 % 1016,0 hPa 0,0 l/m 1,8 km/h (1 Bft) NO 38 0 min 0,000 mm 0,0 UV-I 0 W/m 8,6 C 21,0 C 4,0 km/h (1 Bft) 0,00 %
26.08.2015 20:16 21,0 C 46 % 1016,2 hPa 0,0 l/m 0,7 km/h (0 Bft) O 101 0 min 0,000 mm 0,0 UV-I 0 W/m 8,9 C 21,0 C 4,0 km/h (1 Bft) 0,00 %
26.08.2015 20:21 20,9 C 45 % 1016,0 hPa 0,0 l/m 0,4 km/h (0 Bft) N-NO 18 0 min 0,000 mm 0,0 UV-I 0 W/m 8,5 C 20,9 C 4,0 km/h (1 Bft) 0,00 %
26.08.2015 20:26 20,9 C 45 % 1016,1 hPa 0,0 l/m 5,4 km/h (1 Bft) O-NO 68 0 min 0,000 mm 0,0 UV-I 0 W/m 8,5 C 20,9 C 7,9 km/h (2 Bft) 0,00 %
26.08.2015 20:31 21,0 C 46 % 1016,0 hPa 0,0 l/m 1,8 km/h (1 Bft) O-SO 121 0 min 0,000 mm 0,0 UV-I 0 W/m 8,9 C 21,0 C 4,0 km/h (1 Bft) 0,00 %
26.08.2015 20:36 20,9 C 47 % 1015,9 hPa 0,0 l/m 0,7 km/h (0 Bft) O-SO 106 0 min 0,000 mm 0,0 UV-I 0 W/m 9,2 C 20,9 C 4,0 km/h (1 Bft) 0,00 %
26.08.2015 20:41 20,8 C 47 % 1016,0 hPa 0,0 l/m 4,0 km/h (1 Bft) S 181 0 min 0,000 mm 0,0 UV-I 0 W/m 9,1 C 20,8 C 7,9 km/h (2 Bft) 0,00 %
26.08.2015 20:46 20,7 C 48 % 1016,0 hPa 0,0 l/m 0,7 km/h (0 Bft) O 81 0 min 0,000 mm 0,0 UV-I 0 W/m 9,3 C 20,7 C 4,0 km/h (1 Bft) 0,00 %
26.08.2015 20:51 20,5 C 49 % 1015,9 hPa 0,0 l/m 0,7 km/h (0 Bft) O 101 0 min 0,000 mm 0,0 UV-I 0 W/m 9,4 C 20,5 C 4,0 km/h (1 Bft) 0,00 %
26.08.2015 20:56 20,3 C 49 % 1015,8 hPa 0,0 l/m 2,2 km/h (1 Bft) O-NO 59 0 min 0,000 mm 0,0 UV-I 0 W/m 9,2 C 20,3 C 4,0 km/h (1 Bft) 0,00 %
26.08.2015 21:01 20,2 C 49 % 1016,0 hPa 0,0 l/m 0,0 km/h (0 Bft) NO 55 0 min 0,000 mm 0,0 UV-I 0 W/m 9,1 C 20,2 C 0,0 km/h (0 Bft) 0,00 %
26.08.2015 21:06 20,0 C 50 % 1016,2 hPa 0,0 l/m 6,8 km/h (2 Bft) O-SO 111 0 min 0,000 mm 0,0 UV-I 0 W/m 9,3 C 19,8 C 7,9 km/h (2 Bft) 0,00 %
26.08.2015 21:11 19,9 C 51 % 1015,9 hPa 0,0 l/m 0,0 km/h (0 Bft) O-NO 57 0 min 0,000 mm 0,0 UV-I 0 W/m 9,5 C 19,9 C 0,0 km/h (0 Bft) 0,00 %
26.08.2015 21:16 19,8 C 51 % 1016,1 hPa 0,0 l/m 0,4 km/h (0 Bft) O 86 0 min 0,000 mm 0,0 UV-I 0 W/m 9,4 C 19,8 C 4,0 km/h (1 Bft) 0,00 %
26.08.2015 21:21 19,7 C 51 % 1016,2 hPa 0,0 l/m 2,2 km/h (1 Bft) SO 138 0 min 0,000 mm 0,0 UV-I 0 W/m 9,3 C 19,7 C 4,0 km/h (1 Bft) 0,00 %
26.08.2015 21:26 19,7 C 51 % 1016,2 hPa 0,0 l/m 1,8 km/h (1 Bft) NO 48 0 min 0,000 mm 0,0 UV-I 0 W/m 9,3 C 19,7 C 4,0 km/h (1 Bft) 0,00 %
26.08.2015 21:31 19,7 C 51 % 1016,1 hPa 0,0 l/m 0,7 km/h (0 Bft) N-NO 27 0 min 0,000 mm 0,0 UV-I 0 W/m 9,3 C 19,7 C 4,0 km/h (1 Bft) 0,00 %
26.08.2015 21:36 19,6 C 51 % 1016,1 hPa 0,0 l/m 5,8 km/h (2 Bft) O-SO 117 0 min 0,000 mm 0,0 UV-I 0 W/m 9,2 C 19,6 C 7,9 km/h (2 Bft) 0,00 %
26.08.2015 21:41 19,6 C 51 % 1016,0 hPa 0,0 l/m 4,3 km/h (1 Bft) O-SO 123 0 min 0,000 mm 0,0 UV-I 0 W/m 9,2 C 19,6 C 7,9 km/h (2 Bft) 0,00 %
26.08.2015 21:46 19,6 C 51 % 1016,2 hPa 0,0 l/m 4,0 km/h (1 Bft) N-NO 31 0 min 0,000 mm 0,0 UV-I 0 W/m 9,2 C 19,6 C 7,9 km/h (2 Bft) 0,00 %
26.08.2015 21:51 19,5 C 51 % 1016,2 hPa 0,0 l/m 6,8 km/h (2 Bft) O 86 0 min 0,000 mm 0,0 UV-I 0 W/m 9,1 C 19,3 C 11,9 km/h (2 Bft) 0,00 %
26.08.2015 21:56 19,5 C 51 % 1016,3 hPa 0,0 l/m 0,7 km/h (0 Bft) NO 49 0 min 0,000 mm 0,0 UV-I 0 W/m 9,1 C 19,5 C 4,0 km/h (1 Bft) 0,00 %
26.08.2015 22:01 19,4 C 51 % 1016,4 hPa 0,0 l/m 3,2 km/h (1 Bft) O-SO 102 0 min 0,000 mm 0,0 UV-I 0 W/m 9,0 C 19,4 C 4,0 km/h (1 Bft) 0,00 %
26.08.2015 22:06 19,3 C 52 % 1016,2 hPa 0,0 l/m 2,2 km/h (1 Bft) O-SO 107 0 min 0,000 mm 0,0 UV-I 0 W/m 9,2 C 19,3 C 7,9 km/h (2 Bft) 0,00 %
26.08.2015 22:11 19,1 C 52 % 1016,3 hPa 0,0 l/m 0,0 km/h (0 Bft) NO 45 0 min 0,000 mm 0,0 UV-I 0 W/m 9,0 C 19,1 C 0,0 km/h (0 Bft) 0,00 %
26.08.2015 22:16 19,0 C 53 % 1016,2 hPa 0,0 l/m 4,3 km/h (1 Bft) O 79 0 min 0,000 mm 0,0 UV-I 0 W/m 9,2 C 19,0 C 7,9 km/h (2 Bft) 0,00 %
26.08.2015 22:21 18,9 C 53 % 1016,2 hPa 0,0 l/m 0,7 km/h (0 Bft) O-SO 117 0 min 0,000 mm 0,0 UV-I 0 W/m 9,1 C 18,9 C 4,0 km/h (1 Bft) 0,00 %
26.08.2015 22:26 18,8 C 53 % 1016,2 hPa 0,0 l/m 10,4 km/h (2 Bft) O-SO 110 0 min 0,000 mm 0,0 UV-I 0 W/m 9,0 C 17,2 C 15,8 km/h (3 Bft) 0,00 %
26.08.2015 22:31 18,8 C 53 % 1016,3 hPa 0,0 l/m 0,4 km/h (0 Bft) O 84 0 min 0,000 mm 0,0 UV-I 0 W/m 9,0 C 18,8 C 4,0 km/h (1 Bft) 0,00 %
26.08.2015 22:36 18,7 C 54 % 1016,3 hPa 0,0 l/m 5,4 km/h (1 Bft) O 84 0 min 0,000 mm 0,0 UV-I 0 W/m 9,2 C 18,7 C 7,9 km/h (2 Bft) 0,00 %
26.08.2015 22:41 18,6 C 54 % 1016,3 hPa 0,0 l/m 0,7 km/h (0 Bft) O 96 0 min 0,000 mm 0,0 UV-I 0 W/m 9,1 C 18,6 C 4,0 km/h (1 Bft) 0,00 %
26.08.2015 22:46 18,5 C 54 % 1016,3 hPa 0,0 l/m 2,9 km/h (1 Bft) SO 130 0 min 0,000 mm 0,0 UV-I 0 W/m 9,0 C 18,5 C 4,0 km/h (1 Bft) 0,00 %
26.08.2015 22:51 18,5 C 54 % 1016,3 hPa 0,0 l/m 2,2 km/h (1 Bft) O 90 0 min 0,000 mm 0,0 UV-I 0 W/m 9,0 C 18,5 C 4,0 km/h (1 Bft) 0,00 %
26.08.2015 22:56 18,3 C 55 % 1016,1 hPa 0,0 l/m 4,3 km/h (1 Bft) O 98 0 min 0,000 mm 0,0 UV-I 0 W/m 9,1 C 18,3 C 7,9 km/h (2 Bft) 0,00 %
26.08.2015 23:01 18,2 C 55 % 1016,2 hPa 0,0 l/m 1,4 km/h (1 Bft) O-SO 112 0 min 0,000 mm 0,0 UV-I 0 W/m 9,0 C 18,2 C 4,0 km/h (1 Bft) 0,00 %
26.08.2015 23:06 18,1 C 55 % 1016,0 hPa 0,0 l/m 0,0 km/h (0 Bft) NO 49 0 min 0,000 mm 0,0 UV-I 0 W/m 8,9 C 18,1 C 0,0 km/h (0 Bft) 0,00 %
26.08.2015 23:11 18,0 C 56 % 1016,3 hPa 0,0 l/m 1,4 km/h (1 Bft) SO 129 0 min 0,000 mm 0,0 UV-I 0 W/m 9,1 C 18,0 C 4,0 km/h (1 Bft) 0,00 %
26.08.2015 23:16 17,9 C 57 % 1016,2 hPa 0,0 l/m 0,4 km/h (0 Bft) O 95 0 min 0,000 mm 0,0 UV-I 0 W/m 9,3 C 17,9 C 4,0 km/h (1 Bft) 0,00 %
26.08.2015 23:21 17,8 C 57 % 1016,0 hPa 0,0 l/m 0,0 km/h (0 Bft) O-NO 70 0 min 0,000 mm 0,0 UV-I 0 W/m 9,2 C 17,8 C 0,0 km/h (0 Bft) 0,00 %
26.08.2015 23:26 17,7 C 58 % 1016,2 hPa 0,0 l/m 0,0 km/h (0 Bft) O 92 0 min 0,000 mm 0,0 UV-I 0 W/m 9,3 C 17,7 C 0,0 km/h (0 Bft) 0,00 %
26.08.2015 23:31 17,5 C 59 % 1016,2 hPa 0,0 l/m 2,2 km/h (1 Bft) NO 37 0 min 0,000 mm 0,0 UV-I 0 W/m 9,4 C 17,5 C 4,0 km/h (1 Bft) 0,00 %
26.08.2015 23:36 17,4 C 60 % 1016,3 hPa 0,0 l/m 0,0 km/h (0 Bft) NO 44 0 min 0,000 mm 0,0 UV-I 0 W/m 9,6 C 17,4 C 0,0 km/h (0 Bft) 0,00 %
26.08.2015 23:41 17,3 C 60 % 1016,3 hPa 0,0 l/m 0,0 km/h (0 Bft) O-NO 69 0 min 0,000 mm 0,0 UV-I 0 W/m 9,5 C 17,3 C 0,0 km/h (0 Bft) 0,00 %
26.08.2015 23:46 17,0 C 60 % 1016,3 hPa 0,0 l/m 0,0 km/h (0 Bft) O 88 0 min 0,000 mm 0,0 UV-I 0 W/m 9,2 C 17,0 C 0,0 km/h (0 Bft) 0,00 %
26.08.2015 23:51 16,8 C 61 % 1016,2 hPa 0,0 l/m 0,0 km/h (0 Bft) O-NO 61 0 min 0,000 mm 0,0 UV-I 0 W/m 9,2 C 16,8 C 0,0 km/h (0 Bft) 0,00 %
26.08.2015 23:56 16,6 C 61 % 1016,1 hPa 0,0 l/m 0,0 km/h (0 Bft) O-NO 77 0 min 0,000 mm 0,0 UV-I 0 W/m 9,0 C 16,6 C 0,0 km/h (0 Bft) 0,00 %
_ Min-Zeit 06:20 14:50 19:11 - 00:04 - - - - - - 14:50 06:20 00:04 00:04
Minimum _ 5,4 C 18 % 1015,8 hPa - 0,0 km/h (0 Bft) - - - - - - -0,2 C 5,4 C 0,0 km/h (0 Bft) 0,00 %
_ Max-Zeit 15:10 06:50 10:20 00:04 15:20 - - 18:56 00:04 12:30 14:30 23:36 15:15 12:10 00:04
Maximum _ 26,2 C 99 % 1022,3 hPa 0,0 l/m 12,2 km/h
O-SO (2 Bft)
- - 6 min 0,000 mm 4,0 UV-I 847 W/m 9,6 C 26,2 C 15,8 km/h
O (3 Bft)
0,00 %
Durchschnitt _ 17,2 C 57 % 1019,5 hPa #0,0 l/m 1,9 km/h (1 Bft) O-SO - #10:46 h #0,000 mm 2,0 UV-I 465 W/m 6,3 C 17,1 C 3,4 km/h (1 Bft) 0,00 %